Location: Charbonni�res
(45.9952°N, 2.9982°E)
Time: 17:01:00
(UTC+00:00)

SJ 16-02 - Pass Details

Date: 29 November 2020
Orbit: 606 x 616 km, 75.0° (Epoch: 18 January)

Event Time Altitude Azimuth Distance (km) Brightness Sun altitude
Exits shadow 04:46:06 49° 3° (N) 802 1.8 -23.9°
Drops below altitude 10° 04:49:24 10° 17° (NNE) 1,988 4.0 -23.3°
Sets 04:51:40 0° 19° (NNE) 2,898 4.9 -22.9°
